Time[GMT],current_u[cm/s](10m),current_v[cm/s](10m),current_u[cm/s](14m),current_v[cm/s](14m),current_u[cm/s](18m),current_v[cm/s](18m),current_u[cm/s](22m),current_v[cm/s](22m),current_u[cm/s](26m),current_v[cm/s](26m),current_u[cm/s](30m),current_v[cm/s](30m),current_u[cm/s](34m),current_v[cm/s](34m),current_u[cm/s](38m),current_v[cm/s](38m),current_u[cm/s](42m),current_v[cm/s](42m),current_u[cm/s](46m),current_v[cm/s](46m),current_u[cm/s](50m),current_v[cm/s](50m),current_u[cm/s](54m),current_v[cm/s](54m),current_u[cm/s](58m),current_v[cm/s](58m),current_u[cm/s](62m),current_v[cm/s](62m),current_u[cm/s](66m),current_v[cm/s](66m),current_u[cm/s](70m),current_v[cm/s](70m),current_u[cm/s](74m),current_v[cm/s](74m),current_u[cm/s](78m),current_v[cm/s](78m),current_u[cm/s](82m),current_v[cm/s](82m),current_u[cm/s](86m),current_v[cm/s](86m),current_u[cm/s](90m),current_v[cm/s](90m),current_u[cm/s](94m),current_v[cm/s](94m),current_u[cm/s](98m),current_v[cm/s](98m)
2006-02-23 20:00,-0.19,3.29,-2.19,2.98,-1.66,9.02,-0.50,11.68,0.63,12.45,-1.13,16.41,-1.13,18.08,0.60,18.93,2.38,20.95,1.18,22.78,-2.72,22.19,-3.83,22.37,-2.24,22.66,-1.30,23.68,-1.69,26.29,-1.23,28.84,-1.96,30.18,-1.48,30.65,-0.44,30.34,0.72,29.97,0.37,28.40,-2.36,27.75,-0.70,15.70
2006-02-23 21:00,-3.97,8.71,-8.20,10.54,-6.63,13.23,-8.66,16.37,-7.73,18.75,-5.84,19.76,-6.76,19.68,-6.15,21.76,-6.44,26.38,-8.13,30.15,-9.67,33.75,-9.93,35.24,-9.28,34.50,-8.24,34.20,-6.78,33.19,-6.42,33.40,-7.16,33.07,-7.00,33.22,-5.69,32.06,-3.63,29.14,-4.61,30.93,-4.17,28.87,-0.16,22.05
2006-02-23 22:00,1.41,7.25,-1.77,9.71,-2.71,15.08,-3.07,17.27,-2.51,15.45,-2.09,15.79,-4.79,17.05,-8.68,18.45,-8.46,19.78,-6.77,23.76,-5.14,26.26,-4.30,27.25,-5.68,27.66,-5.58,26.65,-5.34,27.24,-4.50,26.88,-4.84,27.30,-5.10,26.80,-4.12,28.36,-1.95,26.10,-2.33,26.30,1.06,26.52,-1.49,21.95
2006-02-23 23:00,0.26,8.25,-1.39,11.19,-4.40,15.81,-7.27,19.63,-10.76,20.42,-14.20,19.35,-16.57,16.21,-14.86,14.75,-12.73,15.31,-8.57,17.44,-8.56,18.39,-6.60,19.52,-4.07,19.47,-2.95,20.55,-3.72,20.00,-3.79,19.56,-3.25,17.84,-0.05,19.67,-1.70,17.90,-1.61,19.29,-0.74,20.19,-2.49,19.44,1.92,15.37
2006-02-24 00:00,,,,,,,,,,,,,,,,,,,,,,,,,,,,,,,,,,,,,,,,,,,,,,
2006-02-24 01:00,-2.18,-18.90,-4.44,-11.96,-6.55,-3.51,-8.35,-0.09,-8.38,-3.03,-8.82,-4.63,-10.93,-5.92,-10.05,-5.75,-4.77,-5.88,-3.81,-5.59,-3.52,-5.18,-4.20,-4.34,-2.73,-2.32,-1.79,-2.34,0.47,-3.52,0.62,-4.00,1.48,-6.77,0.65,-7.13,1.54,-6.64,1.91,-7.15,-2.97,-4.59,,,,
2006-02-24 02:00,-3.29,-19.35,-4.87,-17.33,-6.00,-15.38,-5.81,-17.31,-5.62,-21.97,-7.37,-25.76,-7.15,-25.79,-5.86,-24.24,-3.78,-21.50,-2.37,-17.60,-0.58,-13.27,2.21,-12.82,2.22,-13.87,2.16,-15.35,3.18,-18.28,3.82,-19.34,4.96,-17.94,5.07,-15.60,4.22,-15.23,4.47,-15.68,9.34,-12.17,-12.81,-11.32,,
2006-02-24 03:00,6.32,-26.00,5.93,-21.72,5.63,-17.73,6.47,-18.41,7.12,-17.47,6.45,-17.68,5.91,-19.63,2.99,-21.38,2.29,-21.49,3.24,-21.82,3.53,-21.42,5.15,-22.59,5.53,-24.15,5.78,-22.92,5.08,-21.36,3.78,-21.55,3.90,-21.93,3.19,-22.68,3.21,-21.41,4.59,-19.10,4.35,-20.01,1.34,-21.79,,
2006-02-24 04:00,4.79,-15.06,7.23,-16.81,7.60,-18.69,6.76,-19.68,2.85,-22.26,1.26,-20.87,-1.39,-20.75,-3.11,-22.65,-2.99,-23.35,-0.97,-21.77,0.24,-21.29,0.67,-18.64,3.12,-16.73,4.55,-17.64,5.79,-17.57,5.91,-15.96,5.78,-16.21,3.80,-15.89,3.73,-14.34,3.96,-15.42,6.74,-15.60,10.81,-14.86,10.09,-12.57
2006-02-24 05:00,1.37,-13.82,3.85,-11.37,7.59,-4.86,6.29,-6.74,3.86,-8.02,-0.29,-8.47,-3.03,-9.11,-4.99,-10.56,-5.43,-12.48,-2.68,-10.89,-1.36,-8.07,-1.06,-7.03,-0.81,-7.16,1.56,-9.05,3.31,-9.97,5.63,-9.35,5.56,-8.43,5.42,-7.63,4.42,-6.79,4.68,-6.29,2.79,-6.25,3.71,-5.86,1.99,-3.36
2006-02-24 06:00,-3.14,-8.41,-2.42,-7.04,2.06,0.43,5.57,3.31,3.63,4.48,2.49,4.44,-0.07,4.59,-3.37,5.76,-5.00,3.26,-3.03,3.67,-2.31,3.05,-1.09,2.49,-0.61,0.96,0.47,-0.17,1.89,1.32,2.75,3.27,1.73,4.20,1.41,4.21,0.61,3.44,-0.90,3.91,-1.88,4.34,-4.04,6.91,-0.33,11.84
2006-02-24 07:00,-5.87,-0.99,-8.33,5.89,-4.04,8.27,-2.44,9.51,-2.29,12.06,-2.24,11.24,-2.63,10.81,-2.54,12.20,-1.76,13.38,-3.55,12.41,-6.12,10.24,-5.34,10.07,-3.80,11.18,-2.74,11.82,-2.46,11.59,-4.16,11.69,-6.01,10.90,-5.14,13.48,-5.34,12.79,-4.75,15.91,-5.01,12.37,-3.99,17.19,-9.50,7.30
2006-02-24 08:00,,,,,,,,,,,,,,,,,,,,,,,,,,,,,,,,,,,,,,,,,,,,,,
2006-02-24 09:00,-7.71,24.41,-3.77,32.97,-4.93,33.66,-7.82,34.85,-9.85,34.32,-10.33,32.81,-8.70,33.64,-8.17,34.64,-8.31,35.75,-7.59,36.81,-7.44,38.01,-7.44,38.01,-7.26,37.43,-8.19,38.40,-7.92,39.22,-8.06,40.33,-7.08,41.57,-7.05,40.12,-6.65,40.87,-6.11,41.14,-5.20,39.23,-3.83,35.15,-5.45,31.61
2006-02-24 10:00,-19.73,17.94,-18.79,19.29,-16.72,18.36,-14.77,15.82,-11.77,14.24,-8.06,14.77,-6.03,18.34,-4.92,23.19,-4.69,26.50,-5.26,28.32,-5.93,27.79,-8.43,28.06,-9.32,27.58,-9.72,28.18,-8.06,27.55,-7.91,27.07,-8.65,26.42,-9.25,26.34,-9.01,25.89,-8.74,21.68,-12.27,16.18,-6.01,20.65,-7.81,20.71
2006-02-24 11:00,-6.78,8.99,-11.00,14.80,-10.60,18.90,-7.41,18.74,-6.31,16.57,-7.52,13.37,-7.14,13.17,-3.44,13.07,-0.68,13.61,-0.54,17.22,-1.10,19.35,-1.19,19.63,-1.29,19.29,-2.41,20.20,-1.54,19.74,-1.24,18.78,-1.00,19.69,-0.31,19.49,1.44,13.54,1.78,8.41,-1.24,14.07,0.23,14.73,-6.13,5.21
2006-02-24 12:00,-3.55,4.34,-8.60,9.79,-10.03,14.37,-9.29,14.70,-8.65,11.97,-7.77,10.15,-7.47,7.52,-5.69,6.50,-4.25,7.58,-4.07,8.68,-4.44,10.56,-7.33,11.44,-7.63,12.39,-8.41,11.52,-7.77,13.19,-7.20,12.00,-3.51,11.27,-4.31,12.17,-6.55,10.95,-5.72,11.31,-3.35,8.07,-10.51,1.13,,
2006-02-24 13:00,-2.37,-1.47,-3.00,3.57,-3.98,5.04,-4.40,4.70,-3.24,4.02,-2.68,2.20,-1.84,-0.47,-1.34,-3.77,-1.20,-3.20,-0.10,-2.02,-2.03,-0.53,-3.46,2.69,-3.51,3.20,-9.13,2.08,-8.47,1.97,-5.79,1.44,-7.25,-1.94,-3.73,-4.51,0.68,2.52,-6.86,-1.19,-5.49,2.48,1.65,8.16,6.84,8.31
2006-02-25 08:00,-12.58,-2.66,-13.37,3.59,-10.72,14.57,-5.30,23.07,-2.24,25.70,0.09,30.30,0.87,37.56,-1.81,42.80,-1.69,44.09,-0.33,43.78,-0.18,43.62,-1.15,44.37,-2.19,44.36,-3.50,43.84,-5.11,41.98,-6.55,42.89,-7.30,41.61,-8.67,41.29,-8.64,44.23,-13.80,37.60,,,18.29,27.38,-6.03,-2.51
2006-02-25 09:00,-1.63,8.60,-4.44,13.91,-4.03,16.97,-3.40,23.03,-1.33,28.81,0.54,30.23,1.45,35.02,2.71,39.39,1.46,45.07,0.33,48.39,1.06,50.40,1.13,50.52,-1.10,51.61,-1.81,52.22,-0.84,51.79,-0.48,52.64,-2.96,51.87,-3.24,51.78,-7.07,47.24,-17.21,47.85,-9.96,46.44,0.13,38.27,-6.08,58.54
2006-02-25 10:00,,,,,,,,,,,,,,,,,,,,,,,,,,,,,,,,,,,,,,,,,,,,,,
2006-02-25 11:00,-11.08,1.26,-13.17,4.28,-15.48,5.65,-17.92,10.44,-20.35,16.91,-19.64,20.69,-18.30,23.10,-14.87,25.53,-10.97,29.16,-8.95,32.09,-7.78,35.07,-7.32,38.99,-8.19,41.75,-8.27,43.72,-9.73,45.36,-10.50,46.48,-11.89,44.90,-11.57,41.85,-9.32,33.96,-9.13,38.74,-5.07,44.19,-17.81,31.63,-8.35,23.79
2006-02-25 12:00,-1.85,-12.20,-8.51,-6.32,-11.99,2.86,-14.51,8.57,-17.86,14.65,-21.24,19.78,-22.50,24.83,-22.13,29.03,-22.20,31.94,-21.83,34.78,-21.69,37.02,-19.96,39.87,-18.26,42.49,-17.07,43.39,-16.43,44.01,-16.52,43.98,-16.81,43.89,-16.04,42.76,-15.47,41.27,-13.21,39.04,-10.40,38.76,-8.18,35.68,4.63,32.55
2006-02-25 13:00,-8.25,-13.88,-9.73,-9.11,-10.82,-4.94,-12.26,-2.67,-13.24,2.16,-14.39,7.88,-14.44,12.05,-13.98,15.96,-12.62,19.32,-10.77,20.11,-7.85,23.53,-6.33,28.40,-6.27,33.24,-6.44,37.17,-7.27,38.79,-6.91,37.65,-6.17,36.62,-5.09,36.85,-6.51,37.04,-6.95,33.76,,,4.38,32.68,,
2006-02-25 14:00,0.10,-18.82,-4.03,-24.72,-5.22,-22.26,-6.55,-16.29,-10.40,-10.67,-12.37,-6.37,-13.34,-4.57,-13.25,-1.51,-11.84,2.70,-11.41,7.03,-9.88,12.21,-6.80,16.11,-3.75,19.78,-2.06,20.41,-0.97,21.27,-0.90,23.08,-1.16,24.57,-2.01,24.62,-0.40,26.17,17.69,10.12,16.89,4.95,,,,
2006-02-25 15:00,-3.69,-23.46,-4.23,-31.48,-3.48,-30.52,-3.58,-22.80,-1.89,-20.49,-0.98,-17.69,-1.48,-17.11,-4.77,-14.26,-8.58,-8.43,-8.69,-3.02,-7.64,0.66,-6.91,0.99,-4.42,2.08,-2.04,4.18,2.70,6.81,5.53,9.16,5.92,11.27,6.96,12.96,6.59,14.83,5.94,15.89,7.47,17.72,,,,
2006-02-25 16:00,-8.62,-28.14,-7.81,-30.40,-3.68,-26.18,-0.61,-21.24,0.21,-19.52,1.51,-19.32,-0.73,-17.51,-2.13,-13.34,-2.60,-8.46,0.68,-5.55,4.03,-5.87,8.02,-7.24,9.05,-9.23,8.78,-12.03,8.52,-13.90,9.21,-15.78,9.46,-17.27,9.63,-15.12,12.49,-12.87,10.63,-12.61,5.64,-4.32,4.89,-5.60,,
2006-02-25 17:00,3.54,-27.18,2.06,-31.83,-1.51,-26.76,2.16,-20.38,4.19,-18.49,2.18,-17.44,1.27,-18.88,0.43,-19.87,1.36,-16.13,1.78,-10.76,2.93,-8.72,3.36,-10.79,3.12,-13.38,4.82,-15.47,5.98,-15.84,5.58,-16.91,5.94,-16.06,5.55,-15.13,4.47,-13.69,3.49,-12.21,0.83,-10.74,-3.11,-6.83,-1.11,-17.63
2006-02-25 18:00,2.64,-27.98,7.26,-35.76,4.73,-27.96,1.08,-17.26,3.24,-10.72,4.38,-7.33,2.25,-7.89,-1.77,-9.45,-2.92,-8.45,-1.34,-7.12,-2.49,-7.79,-1.18,-8.64,0.12,-8.13,1.14,-6.35,2.20,-5.39,2.39,-5.65,1.77,-4.68,2.35,-2.83,2.82,0.04,2.58,2.48,1.20,4.88,4.39,10.79,,
2006-02-25 19:00,-1.66,-21.57,0.34,-30.69,-0.75,-18.77,-2.36,-4.19,1.52,1.52,3.70,4.61,3.68,6.70,0.00,5.03,-2.01,2.41,-1.77,3.01,-2.17,3.93,-2.42,3.75,-2.41,3.02,-1.39,3.44,0.68,3.88,1.84,4.87,0.20,6.76,-0.82,8.33,-2.11,10.13,-1.81,12.53,-1.69,15.18,0.04,19.70,-0.89,20.67
2006-02-25 20:00,-5.12,-14.16,-6.01,-10.98,-7.25,1.41,-5.01,8.70,1.64,10.88,5.72,12.57,7.60,14.94,4.70,15.50,1.11,14.59,-0.56,13.23,-1.80,11.17,-2.26,10.61,-2.08,11.71,-2.43,11.50,-0.53,13.14,0.83,14.82,1.72,18.03,0.15,22.04,0.13,25.49,-0.59,27.78,1.87,28.97,3.82,31.77,-2.81,30.55
2006-02-25 21:00,-7.15,1.44,-7.81,12.65,-7.01,16.78,-7.69,20.33,-6.58,22.46,-4.81,22.17,-3.33,22.11,-1.77,22.49,-1.44,23.12,-4.08,27.22,-9.83,28.88,-10.47,30.25,-10.00,33.12,-8.33,37.52,-6.72,40.74,-6.65,44.54,-5.83,47.31,-6.87,48.97,-6.30,47.47,-6.67,47.99,-3.10,49.31,-10.13,49.00,,
2006-02-25 22:00,-5.67,7.45,-5.97,14.79,-6.18,21.85,-4.66,28.08,-2.26,31.14,-1.53,31.15,-1.62,30.08,-2.90,29.16,-6.21,29.70,-10.34,28.83,-10.72,30.39,-10.27,33.98,-9.07,38.86,-8.29,44.44,-7.33,50.09,-6.62,50.52,-7.52,51.70,-9.58,49.59,-12.38,48.83,-8.92,49.49,-10.69,38.36,-8.17,32.96,,
2006-02-25 23:00,-7.92,10.63,-14.28,15.24,-17.99,18.07,-17.17,22.51,-13.55,24.69,-11.84,24.91,-11.09,26.19,-10.93,26.34,-11.66,26.01,-11.62,26.55,-12.07,27.98,-11.58,30.12,-8.95,33.77,-2.80,38.93,-0.23,44.44,-0.38,47.96,-1.07,49.84,-1.46,51.08,-1.27,49.15,-1.36,49.43,0.43,48.73,5.52,29.69,10.58,23.20
2006-02-26 00:00,-1.86,4.97,-7.96,11.77,-11.84,17.16,-13.93,21.85,-16.39,26.73,-16.34,27.59,-15.74,27.67,-15.38,28.20,-12.66,29.89,-8.44,30.47,-5.73,31.52,-4.54,32.41,-5.63,33.54,-4.56,34.82,-3.39,37.80,-3.35,38.65,-2.89,39.21,-2.34,38.44,-2.23,40.47,-0.39,37.58,4.50,30.62,6.17,22.24,11.90,22.66
2006-02-26 01:00,,,,,,,,,,,,,,,,,,,,,,,,,,,,,,,,,,,,,,,,,,,,,,
2006-02-26 02:00,,,,,,,,,,,,,,,,,,,,,,,,,,,,,,,,,,,,,,,,,,,,,,
2006-02-26 03:00,-1.78,-14.80,-2.92,-19.87,0.49,-15.35,1.98,-11.74,3.27,-7.15,-0.44,-3.28,-2.62,3.37,-2.64,7.45,-1.42,8.25,-1.38,8.47,-3.08,7.53,-3.29,9.55,-5.37,10.16,-6.24,8.95,-8.10,10.88,-6.93,12.82,-4.80,16.42,-3.97,16.78,-4.20,8.12,-3.13,-0.03,8.79,9.44,,,,
2006-02-26 04:00,,,,,,,,,,,,,,,,,,,,,,,,,,,,,,,,,,,,,,,,,,,,,,
2006-02-26 05:00,,,,,,,,,,,,,,,,,,,,,,,,,,,,,,,,,,,,,,,,,,,,,,
2006-02-26 06:00,2.00,-39.39,4.58,-43.61,3.86,-36.61,0.17,-37.86,-0.41,-31.65,1.69,-24.61,0.82,-19.12,0.47,-16.30,2.07,-15.06,1.57,-14.80,1.64,-14.68,0.34,-14.56,-1.82,-16.70,-2.10,-15.11,-2.51,-15.13,-3.90,-15.04,-3.25,-15.78,-1.97,-11.82,-0.44,-4.64,-0.72,-18.87,-6.15,8.98,2.74,-10.14,4.41,-53.82
2006-02-26 07:00,-7.90,-22.05,-7.82,-25.69,-5.51,-20.99,-0.94,-17.16,0.53,-11.46,-1.60,-4.27,-2.43,0.08,-1.77,4.68,-1.43,9.30,-3.09,8.57,-4.65,8.19,-4.39,8.06,-4.66,7.56,-4.75,7.84,-5.40,8.58,-4.71,8.06,-5.71,7.23,-4.59,6.01,-4.63,5.78,-2.48,2.58,6.01,9.62,20.06,30.76,15.72,9.71
2006-02-26 08:00,-2.59,-23.64,-6.37,-27.96,-6.04,-23.98,-2.80,-13.55,3.39,-4.50,8.94,-0.78,9.50,3.80,9.57,8.95,7.40,12.57,4.38,13.51,2.19,14.51,0.43,15.11,-0.41,16.11,-0.28,17.72,-0.05,19.67,-0.45,20.28,0.40,21.91,0.28,22.29,0.70,20.96,-3.22,30.52,-0.89,27.06,15.92,27.90,3.32,28.68
2006-02-26 09:00,-12.88,-11.76,-17.77,-3.13,-17.06,4.01,-13.71,8.72,-6.65,13.95,2.32,15.07,6.32,14.01,6.26,14.20,7.35,18.10,5.14,20.14,4.02,24.08,2.66,27.12,4.01,29.84,5.45,30.60,4.84,33.56,6.44,33.11,7.19,35.44,6.12,42.23,5.36,40.63,3.36,46.71,2.85,36.92,4.43,32.17,14.32,31.38
2006-02-26 10:00,-5.79,-13.01,-12.77,-2.72,-13.32,-0.27,-11.98,3.81,-9.51,11.70,-5.11,20.09,0.96,26.17,4.34,30.47,2.95,33.91,1.35,34.67,-0.95,38.04,-2.90,40.57,-2.63,43.07,-2.17,45.30,-2.66,47.88,-1.14,48.04,-3.07,49.21,-0.58,47.27,-3.84,48.66,0.49,42.15,-3.54,41.63,-11.41,43.68,7.85,3.39
2006-02-26 11:00,-3.47,-17.11,-7.89,-8.95,-8.43,-8.59,-9.32,-4.37,-10.53,1.54,-12.67,10.09,-14.32,16.38,-14.89,22.59,-14.39,25.37,-12.30,29.06,-10.85,35.16,-9.90,39.86,-9.99,44.86,-8.87,50.34,-7.54,55.15,-6.81,56.85,-7.33,60.87,-6.02,60.34,-8.48,60.52,-2.59,60.78,-3.48,58.93,-4.58,61.10,12.65,-8.00
2006-02-26 12:00,-1.29,-14.02,-7.15,-8.30,-8.30,-5.62,-7.81,-4.84,-7.74,-6.08,-10.34,-3.12,-11.71,4.31,-13.21,6.78,-14.02,9.36,-13.74,12.16,-12.53,19.04,-11.34,26.32,-8.86,31.49,-5.93,37.53,-5.96,44.02,-6.17,49.40,-7.05,52.90,-5.93,56.70,-2.34,52.90,-4.23,59.32,-5.21,53.37,0.29,59.58,17.14,41.47
2006-02-26 13:00,-5.24,-17.13,-7.94,-6.45,-10.52,-5.58,-10.13,-9.86,-13.26,-5.18,-12.81,3.13,-11.17,4.59,-9.00,7.36,-6.90,11.05,-6.35,16.35,-6.63,22.97,-7.44,28.58,-8.44,32.14,-7.97,35.01,-8.37,38.97,-8.41,41.79,-7.12,43.03,-6.75,45.55,-4.55,48.23,,,,,,,-14.56,47.42
2006-02-26 14:00,-1.35,-10.79,-4.00,-13.71,-6.26,-9.49,-8.87,-0.46,-11.27,7.28,-13.53,11.50,-14.76,15.09,-14.88,18.20,-13.52,20.19,-11.52,22.18,-10.15,25.54,-9.96,27.27,-10.25,31.90,-7.40,33.52,-6.62,34.70,-5.56,35.66,-4.36,33.83,-4.73,34.35,-3.16,33.68,-2.40,30.57,-0.91,37.21,,,,
2006-02-26 15:00,-1.08,-30.50,-2.57,-32.43,-3.27,-32.54,-4.60,-36.00,-5.73,-35.41,-6.45,-28.72,-6.74,-14.35,-9.51,-4.11,-12.46,6.70,-14.79,13.51,-15.95,15.56,-15.20,18.20,-13.47,20.73,-13.29,21.83,-12.22,21.75,-12.23,21.43,-11.60,24.46,-11.84,26.58,-12.53,25.11,-5.32,23.48,6.57,-0.57,,,14.55,-11.07
2006-02-26 16:00,-3.89,-57.46,-4.41,-43.69,-1.39,-35.21,0.51,-28.54,1.09,-26.37,1.90,-23.60,2.73,-18.53,1.99,-14.46,-0.93,-11.81,-2.57,-9.91,-5.64,-6.78,-6.91,-4.04,-7.01,-2.71,-7.28,-0.49,-5.92,2.87,-2.95,7.46,-0.67,9.22,2.73,13.10,1.53,14.93,,,,,,,-13.33,15.22
2006-02-26 17:00,-1.29,-57.38,-2.76,-53.33,-2.16,-48.22,-0.46,-40.57,2.25,-28.73,3.96,-19.09,4.31,-13.84,4.42,-11.82,3.12,-10.34,2.54,-12.20,2.75,-12.86,4.02,-11.21,4.61,-10.09,4.65,-7.87,4.78,-5.95,5.32,-2.64,6.33,1.87,6.19,2.98,9.38,3.86,7.76,0.32,,,,,,
2006-02-26 18:00,4.88,-52.32,10.27,-49.80,8.14,-50.67,2.93,-40.67,4.83,-28.97,7.62,-17.74,6.70,-14.46,6.18,-15.46,4.73,-14.86,6.07,-14.45,5.58,-13.87,5.01,-12.37,5.15,-9.81,5.38,-9.53,3.76,-9.72,3.33,-10.69,2.08,-11.40,2.20,-13.45,5.49,-14.94,6.20,-17.55,6.58,-17.43,6.70,-9.75,-0.76,1.44
2006-02-26 19:00,-10.49,-58.46,-9.13,-44.00,-7.26,-26.46,-2.62,-14.12,3.40,-8.89,5.66,-9.76,6.08,-9.10,5.98,-9.45,6.17,-9.71,6.57,-8.64,7.83,-8.66,8.13,-9.30,8.32,-6.52,7.45,-5.43,6.20,-3.10,4.96,1.55,2.99,5.54,2.30,7.74,1.37,8.39,2.10,8.72,-7.45,12.13,-3.71,4.50,2.68,-3.56
2006-02-26 20:00,-11.59,-40.48,-11.64,-17.45,-3.39,-1.89,3.31,2.50,5.14,2.33,6.73,2.62,6.81,2.02,6.50,2.34,4.03,2.20,2.73,2.00,2.15,3.18,2.31,3.02,2.06,4.83,0.11,10.40,-1.29,14.89,-3.90,18.58,-3.38,20.94,-2.92,23.49,-3.18,27.71,-0.57,30.41,0.04,24.42,0.36,11.63,0.30,-0.64
2006-02-26 21:00,-15.83,-29.54,-15.74,0.75,-6.89,11.36,-1.83,11.58,-1.06,11.82,-0.69,11.62,-0.25,12.91,-0.42,14.11,-0.48,13.99,-1.46,12.43,-2.88,11.25,-3.83,11.27,-3.98,14.47,-4.85,19.96,-6.13,25.74,-5.82,30.13,-5.25,33.35,-4.61,37.32,-6.11,38.11,0.96,24.49,,,-11.83,12.76,-3.96,-2.07
2006-02-26 22:00,-5.88,-15.76,-9.27,9.26,-5.16,21.96,-4.45,26.06,-4.82,26.57,-4.34,27.03,-6.31,27.99,-7.44,28.58,-8.51,28.67,-11.12,29.32,-12.34,31.87,-12.31,34.81,-10.54,39.56,-8.54,42.90,-8.00,46.53,-8.52,48.88,-11.12,50.16,-12.02,51.03,-12.29,50.22,7.54,34.29,3.96,6.79,,,-1.05,-1.69
2006-02-26 23:00,-4.03,-2.20,-15.69,12.71,-17.72,26.63,-12.14,36.96,-8.66,38.89,-5.05,39.07,-3.87,39.33,-2.15,40.18,-0.49,40.91,1.20,41.22,0.02,44.00,-2.82,47.40,-5.04,50.48,-5.84,53.38,-5.87,55.15,-4.86,56.62,-6.07,57.50,-8.31,59.31,-8.03,60.76,-9.60,58.07,-4.97,55.64,-18.65,22.89,12.50,0.23
2006-02-27 00:00,,,,,,,,,,,,,,,,,,,,,,,,,,,,,,,,,,,,,,,,,,,,,,
2006-02-27 01:00,,,,,,,,,,,,,,,,,,,,,,,,,,,,,,,,,,,,,,,,,,,,,,
2006-02-27 02:00,7.76,-25.24,5.78,-25.96,-4.16,-23.29,-11.47,-12.27,-13.99,0.88,-14.69,7.15,-12.22,12.01,-10.64,18.37,-8.97,21.40,-10.86,21.75,-15.24,21.02,-18.23,20.19,-18.63,20.80,-18.44,20.54,-15.68,21.41,-13.44,22.63,-10.62,24.34,-8.81,26.27,-7.96,27.90,-9.45,29.00,-8.17,26.57,14.18,9.97,-1.06,-11.75
2006-02-27 03:00,5.86,-36.30,0.16,-30.11,-0.91,-31.71,-3.71,-24.41,-7.08,-13.93,-7.50,-4.85,-7.23,2.36,-6.62,9.15,-6.16,13.06,-5.76,14.44,-6.56,16.70,-6.91,18.48,-7.71,19.38,-7.44,20.20,-8.54,20.70,-7.60,20.36,-6.49,20.50,-5.62,19.72,-6.19,19.54,-5.43,19.78,0.91,13.90,6.10,-4.80,-8.06,1.99
2006-02-27 04:00,0.38,-57.70,-1.53,-43.52,-1.69,-30.90,-0.34,-26.81,0.14,-23.31,-1.77,-14.17,-1.52,-6.55,-1.24,-1.75,-1.12,2.58,-1.00,3.56,-1.94,4.21,-3.48,6.46,-5.14,7.41,-4.44,9.20,-3.34,10.06,-2.78,9.92,-3.10,11.29,-2.66,12.58,-1.23,12.71,-0.06,14.33,-2.25,9.25,-0.72,13.39,2.82,-7.71
2006-02-27 05:00,-3.07,-65.79,-3.58,-52.75,-1.32,-40.84,4.50,-31.28,6.09,-24.60,3.96,-23.80,1.00,-20.01,-0.54,-16.09,-3.05,-11.74,-4.83,-6.01,-6.82,-5.68,-5.44,-4.73,-1.73,-4.20,0.68,-2.51,1.94,-0.86,2.55,0.90,3.53,1.10,4.26,1.12,4.42,0.96,2.98,1.87,0.93,-0.97,-1.34,1.26,0.33,-1.05
2006-02-27 06:00,-1.36,-60.54,-2.22,-45.00,0.78,-29.40,1.01,-24.09,1.48,-20.90,1.95,-16.36,2.71,-11.72,2.78,-11.28,2.52,-11.78,3.60,-12.91,5.31,-13.01,5.70,-13.93,6.85,-14.94,7.27,-14.60,7.10,-13.71,6.31,-12.18,5.60,-11.24,4.55,-11.26,4.64,-9.87,3.12,-8.35,2.18,-8.01,-0.81,-4.13,-1.40,-2.22
2006-02-27 07:00,6.31,-55.22,11.57,-56.31,14.17,-44.81,18.76,-46.11,15.22,-36.42,10.74,-28.08,5.36,-23.26,3.61,-20.66,2.36,-16.34,1.79,-15.15,1.63,-13.63,1.31,-10.59,2.01,-10.48,3.18,-10.22,4.05,-9.63,4.85,-9.17,4.70,-7.02,3.69,-5.13,2.11,-3.74,-0.14,-0.57,-1.68,1.36,-34.31,18.01,3.97,-5.68
2006-02-27 08:00,-9.25,-32.52,-5.91,-23.73,-1.31,-11.61,8.41,-11.52,12.39,-11.54,5.46,-5.42,3.48,-0.07,0.62,1.03,-2.64,0.75,-4.50,1.01,-4.38,2.62,-4.41,4.07,-4.78,4.59,-3.45,6.36,-1.90,6.43,0.44,6.32,1.04,6.40,1.40,6.93,1.00,8.90,-2.29,12.06,2.48,15.23,,,-0.69,6.91
2006-02-27 09:00,-12.21,-19.30,-15.09,-5.01,-6.95,2.13,-0.20,4.34,1.83,5.91,1.37,8.39,-1.00,10.27,-4.12,10.87,-7.54,10.43,-7.63,10.72,-8.76,11.31,-9.73,11.74,-10.10,13.93,-8.38,16.14,-7.50,19.03,-6.90,23.83,-5.51,26.77,-4.43,28.68,-2.66,31.74,-4.38,34.56,6.13,26.73,,,-1.64,8.29
2006-02-27 10:00,-11.43,2.41,-12.57,10.75,-7.68,11.54,-8.00,11.23,-7.43,12.77,-7.10,13.39,-7.05,12.89,-6.85,13.26,-6.17,14.42,-6.53,18.60,-6.69,23.16,-7.56,25.29,-7.74,26.18,-8.39,26.92,-7.34,30.29,-5.60,34.81,-2.53,40.06,-0.17,42.58,1.22,44.16,1.35,44.10,4.51,37.64,14.46,21.16,18.99,-5.50
2006-02-27 12:00,-1.09,11.91,-8.53,16.30,-16.72,23.07,-23.69,31.69,-28.00,38.10,-30.73,40.49,-31.42,42.37,-31.15,45.18,-28.36,48.35,-24.30,50.46,-20.87,51.21,-18.46,51.54,-16.85,51.73,-14.61,51.28,-13.24,51.60,-12.23,51.70,-10.80,51.83,-10.71,51.86,-9.26,51.58,-8.71,52.17,-7.68,51.55,-9.19,50.03,-10.90,47.09
2006-02-27 13:00,1.97,5.12,-6.00,8.50,-11.18,15.37,-15.92,23.21,-19.02,29.79,-18.24,34.01,-14.82,37.49,-11.75,40.75,-9.09,40.63,-6.85,38.82,-5.63,38.26,-5.93,38.89,-7.01,38.98,-7.32,38.99,-7.38,39.18,-6.61,40.05,-6.08,41.05,-5.66,43.06,-1.95,43.59,1.49,44.66,2.89,43.84,4.07,42.43,-1.19,42.15
2006-02-27 14:00,-2.77,-8.93,-8.88,-5.80,-12.12,-1.78,-16.98,5.08,-17.03,10.30,-15.50,12.77,-16.23,12.75,-18.30,13.68,-23.14,16.46,-24.69,16.40,-21.51,12.89,-19.06,13.44,-16.36,17.21,-14.39,20.97,-12.74,24.10,-8.09,27.65,-4.33,30.39,-2.35,31.42,-1.57,30.93,-1.52,30.11,-1.23,30.51,-2.60,30.19,-5.43,27.85
2006-02-27 15:00,-0.63,-14.44,-2.22,-9.70,-2.34,-4.92,0.07,-2.91,-0.51,-1.73,-2.79,1.23,-7.85,6.04,-13.98,9.58,-17.54,10.25,-17.06,6.00,-17.12,1.16,-16.50,-1.16,-16.23,-0.03,-14.88,2.70,-13.64,6.12,-11.19,8.35,-9.14,9.83,-8.60,11.46,-3.56,13.45,-0.81,16.40,2.40,18.87,1.34,19.58,1.59,14.74
2006-02-27 16:00,-1.68,-25.87,2.92,-21.82,4.42,-18.21,0.02,-13.51,-4.22,-13.36,-6.57,-15.56,-8.43,-14.98,-8.91,-12.10,-7.13,-8.71,-5.33,-5.43,-5.05,-1.26,-5.98,-0.29,-5.48,-3.59,-5.27,-5.62,-4.44,-5.57,-4.88,-1.83,-4.67,2.21,-4.49,4.68,-3.57,5.07,-1.09,3.85,2.63,5.01,6.66,5.85,9.15,6.94
2006-02-27 17:00,0.54,-47.80,-2.81,-35.02,-1.58,-26.89,-1.70,-23.47,-2.21,-27.19,-1.70,-25.14,-2.30,-18.84,-1.06,-13.42,1.16,-11.79,3.42,-12.66,4.90,-14.39,5.43,-15.07,5.79,-15.90,6.15,-16.73,7.64,-18.46,10.56,-20.80,12.67,-23.18,11.79,-24.08,11.66,-24.33,8.64,-20.67,5.73,-17.07,3.80,-13.90,-5.56,-7.70
2006-02-27 18:00,3.75,-58.11,4.18,-47.40,5.14,-37.68,4.47,-36.21,2.83,-37.66,3.00,-35.52,3.44,-33.91,3.23,-33.24,2.84,-33.68,2.31,-35.31,2.43,-37.05,2.67,-35.83,3.78,-35.69,4.74,-35.39,5.71,-35.82,5.91,-33.77,8.13,-31.82,9.68,-28.72,8.73,-27.03,4.77,-24.07,3.20,-20.37,4.07,-24.50,31.99,-23.34
2006-02-27 19:00,-0.13,-52.72,1.08,-41.14,8.40,-34.04,10.30,-31.04,8.89,-33.58,7.30,-35.22,7.65,-35.32,7.16,-34.43,5.96,-34.28,5.47,-33.38,4.59,-33.24,3.89,-33.35,3.62,-34.17,3.79,-33.70,4.64,-34.06,5.30,-31.13,6.41,-30.68,6.83,-28.66,7.80,-27.74,10.02,-28.82,2.10,-26.26,,,15.34,-3.18
2006-02-27 20:00,1.85,-38.91,-2.10,-27.57,0.30,-19.81,-0.00,-20.84,-0.61,-22.60,-2.00,-22.51,-4.43,-22.43,-4.91,-21.22,-4.43,-21.07,-3.63,-20.61,-3.96,-19.56,-4.15,-19.31,-3.01,-19.27,-3.53,-19.95,-2.33,-20.42,-1.35,-20.22,-0.31,-18.84,1.27,-17.52,3.10,-16.00,4.46,-16.00,7.31,-15.74,,,-0.42,-5.37
2006-02-27 21:00,-1.04,-26.93,-6.30,-11.70,-1.37,-8.70,1.52,-12.62,2.24,-11.56,1.38,-10.15,0.17,-10.63,-0.62,-9.10,0.69,-8.27,1.20,-8.22,1.68,-7.75,1.92,-6.84,1.85,-6.96,0.51,-6.02,0.26,-5.89,0.17,-5.92,0.49,-4.25,0.30,-3.99,0.84,-3.72,0.56,-3.81,5.26,-2.76,-13.10,-3.66,11.17,4.84
2006-02-27 22:00,-10.15,0.30,-7.32,7.36,-4.50,9.07,-5.87,8.75,-7.01,7.03,-8.37,7.03,-8.30,5.79,-8.11,4.18,-8.15,3.64,-8.74,4.19,-8.13,4.59,-6.40,6.07,-4.75,9.52,-5.03,11.11,-4.56,12.30,-4.60,13.75,-4.85,15.25,-4.59,17.42,-3.58,18.89,-4.20,20.90,-4.25,21.72,-3.98,22.85,42.09,5.78
2006-02-27 23:00,-5.60,17.63,-14.16,27.64,-14.70,26.01,-11.46,23.35,-8.98,24.12,-7.20,26.14,-5.49,26.36,-3.59,27.68,-3.68,27.97,-3.59,27.68,-3.90,26.65,-3.41,28.79,-4.22,31.36,-3.90,34.71,-4.10,38.73,-3.59,42.14,-4.26,44.97,-3.95,48.31,-3.47,48.14,-2.44,47.84,-3.20,46.24,-6.01,38.45,1.43,-15.68
2006-02-28 00:00,-2.07,23.13,-14.26,27.61,-22.03,34.41,-21.60,37.05,-19.35,38.59,-18.96,39.03,-17.28,41.02,-16.41,43.59,-15.98,47.60,-15.73,50.51,-16.34,51.78,-16.55,50.46,-15.41,50.82,-14.17,52.56,-12.35,53.76,-10.67,55.12,-10.06,55.83,-10.27,56.50,-9.89,56.62,-10.11,54.67,-10.66,52.40,-9.80,51.31,-11.86,41.45
2006-02-28 01:00,-13.69,22.76,-22.02,22.26,-26.63,24.28,-28.19,29.66,-28.04,34.52,-26.22,36.77,-21.76,38.58,-16.83,39.90,-14.56,42.70,-14.00,45.29,-11.73,46.41,-8.31,48.21,-5.95,49.36,-4.69,50.70,-2.95,52.50,-2.88,54.30,-1.59,55.54,-0.64,55.52,0.32,54.46,0.29,54.55,-0.26,50.93,0.18,47.19,-1.74,41.25
2006-02-28 02:00,-20.48,11.95,-20.89,16.96,-21.07,22.24,-20.38,26.43,-20.14,29.34,-17.96,32.11,-15.63,34.72,-12.96,35.55,-11.05,34.79,-11.57,32.11,-8.59,30.95,-9.94,31.57,-10.61,33.04,-11.22,34.00,-13.13,33.41,-14.50,34.45,-14.81,34.77,-14.78,36.35,-14.89,37.05,-14.62,37.86,-13.42,36.35,-12.90,35.36,-12.24,28.87
2006-02-28 03:00,-8.46,-15.20,-12.10,-8.90,-15.94,1.74,-15.88,11.29,-16.26,17.24,-17.21,21.98,-17.27,25.52,-16.14,26.60,-16.76,27.25,-17.14,27.13,-17.12,28.08,-15.94,28.97,-15.39,27.57,-13.68,26.11,-11.46,26.38,-10.39,24.62,-8.71,24.94,-6.52,26.98,-4.02,30.38,-1.15,32.95,-0.02,34.03,-1.35,32.26,7.12,19.50
2006-02-28 04:00,-10.80,-16.77,-11.88,-8.94,-8.72,0.43,-3.27,4.11,-4.39,3.66,-4.35,2.21,-4.78,2.91,-6.90,1.31,-10.00,-1.86,-8.30,-2.27,-6.51,0.38,-7.33,5.36,-7.14,9.82,-6.22,13.57,-6.80,17.47,-6.18,20.18,-3.98,19.50,-4.41,19.89,-5.10,17.37,-3.94,13.65,8.74,9.95,-2.70,7.33,49.92,-15.66